Simultaneous Nadir Overpasses (SNOs) Predictions

Prediction of SNOs between AURA and NPP Satellite Orbit:

Table of predicted SNOs for the next 14.0 days since TLE Epoch: 2/20/2021
Index Date (AURA) Time (AURA) Lat,Lon (AURA) SZA (AURA ) Date (NPP) Time (NPP) Lat,Lon (NPP) SZA (NPP ) Distance(km) Time Diff (sec)
1 02/20/2021 19:08:30 79.45, 149.41 103.52 02/20/2021 19:07:20 79.45, 149.38 103.58 0.75 70
2 02/20/2021 19:57:50 -79.71, -41.06 76.89 02/20/2021 19:57:57 -79.72, -40.99 76.91 1.59 7
3 02/23/2021 11:24:56 79.57, -93.90 102.38 02/23/2021 11:24:10 79.58, -93.80 102.39 2.40 46
4 02/23/2021 12:14:18 -79.76, 75.12 77.92 02/23/2021 12:14:50 -79.75, 75.04 77.93 1.85 32
5 02/26/2021 03:41:25 79.60, 22.23 101.33 02/26/2021 03:41:04 79.60, 22.20 101.35 0.53 21
6 02/26/2021 04:30:45 -79.86,-168.17 79.09 02/26/2021 04:31:41 -79.87,-168.09 79.14 1.55 56
7 02/28/2021 19:08:35 -79.37, -31.11 79.35 02/28/2021 19:07:21 -79.38, -31.14 79.29 1.14 74
8 02/28/2021 19:57:54 79.63, 138.33 100.27 02/28/2021 19:57:58 79.63, 138.18 100.29 3.00 4
9 03/03/2021 11:25:02 -79.48, 85.48 80.53 03/03/2021 11:24:13 -79.47, 85.36 80.47 2.49 49
10 03/03/2021 12:14:20 79.77,-104.78 99.03 03/03/2021 12:14:48 79.77,-104.72 99.00 1.35 28



Historial Predications of SNOs between AURA and NPP
